Observations
| Time | Sensor | AQI | SAQ | Temp °C | Hum % | Pres Pa | CO μg/m³ | H₂S μg/m³ | NO μg/m³ | NO₂ μg/m³ | O₃ μg/m³ | SO₂ μg/m³ | CO₂e PPM | VOC PPM | PM1 μg/m³ | PM2.5 μg/m³ | PM4 μg/m³ | PM10 μg/m³ | TPS µm |
|---|---|---|---|---|---|---|---|---|---|---|---|---|---|---|---|---|---|---|---|
| Wednesday 12 August 2026 | |||||||||||||||||||
| 10:29 | Trim Market St | 2 | 34.6 | 39 | 66,159 | 0.17 | 0 | 0.29 | 9.1 | 27.5 | 0 | 2.14 | 5.05 | 5.09 | |||||
| 10:27 | Trim Patrick St | 2 | 29.9 | 50 | 69,464 | 0 | 0 | 0.97 | 4.81 | 48.42 | 8.32 | 5.43 | 10.26 | 11.29 | |||||
| 10:27 | Trim Market St | 2 | 34.2 | 39 | 66,042 | 0.17 | 0 | 0.35 | 5.43 | 1.07 | 0 | 2.14 | 5.04 | 5.1 | |||||
| 10:24 | Trim Patrick St | 2 | 29.7 | 50 | 69,479 | 0 | 0 | 1.11 | 0.87 | 20.96 | 6.13 | 4.57 | 10.23 | 11.25 | |||||
| 10:23 | Trim Patrick St | 2 | 29.6 | 51 | 69,509 | 0.08 | 0 | 1.14 | 3.07 | 12.09 | 6.1 | 6.29 | 11.66 | 12.82 | |||||
| 10:22 | Trim Patrick St | 2 | 29.5 | 52 | 69,549 | 0.08 | 0 | 1.26 | 5.6 | 13.12 | 6.8 | 5.43 | 10.83 | 11.91 | |||||
| 10:21 | Trim Patrick St | 2 | 29.5 | 49 | 69,593 | 0.12 | 0 | 1.04 | 8.81 | 2.19 | 7.13 | 6.29 | 11.8 | 12.98 | |||||
| 10:20 | Trim Patrick St | 2 | 29.4 | 49 | 69,654 | 0.1 | 0 | 0.99 | 4.21 | 30.5 | 8.04 | 5.43 | 11.05 | 12.15 | |||||
| 10:19 | Trim Market St | 2 | 33.2 | 42 | 65,402 | 0.55 | 0 | 0.43 | 4.1 | 0 | 0 | 2.85 | 5.41 | 5.94 | |||||
| 10:19 | Trim Patrick St | 2 | 29.4 | 49 | 69,693 | 0.07 | 0 | 0.96 | 8.29 | 41.63 | 8.02 | 6.29 | 12.61 | 13.87 | |||||
| 10:18 | Trim Market St | 2 | 33.2 | 43 | 65,203 | 0.57 | 0 | 0.44 | 4.21 | 0 | 0 | 2.14 | 4.87 | 5.16 | |||||
| 10:18 | Trim Patrick St | 2 | 29.4 | 51 | 69,748 | 0.08 | 0 | 1.13 | 4.66 | 27.65 | 6.15 | 7.14 | 11.67 | 12.84 | |||||
| 10:17 | Trim Market St | 2 | 33.1 | 43 | 64,977 | 0.59 | 0 | 0.46 | 4.22 | 0 | 0 | 2.85 | 4.85 | 5.16 | |||||
| 10:17 | Trim Patrick St | 2 | 29.3 | 53 | 69,834 | 0.11 | 0 | 1.18 | 1.43 | 5.32 | 5.64 | 6.29 | 10.77 | 11.84 | |||||
| 10:16 | Trim Market St | 2 | 33.1 | 44 | 64,801 | 0.6 | 0 | 0.45 | 4.06 | 0 | 0 | 2.14 | 5.35 | 5.96 | |||||
| 10:16 | Trim Patrick St | 2 | 29.2 | 51 | 69,946 | 0.17 | 0 | 1.04 | 3.69 | 0 | 5.18 | 6.29 | 12.44 | 13.68 | |||||
| 10:15 | Trim Market St | 2 | 33 | 44 | 64,499 | 0.67 | 0 | 0.48 | 4.18 | 0 | 0 | 2.14 | 4.79 | 5.19 | |||||
| 10:15 | Trim Patrick St | 2 | 29.1 | 53 | 70,091 | 0.17 | 0 | 1.13 | 4.53 | 24.99 | 5.83 | 6.29 | 11.55 | 12.7 | |||||
| 10:14 | Trim Market St | 2 | 32.9 | 45 | 64,068 | 0.68 | 0 | 0.56 | 3.29 | 0 | 0 | 2.14 | 4.74 | 5.98 | |||||
| 10:14 | Trim Patrick St | 2 | 28.9 | 52 | 70,266 | 0.22 | 0 | 1.14 | 7.4 | 8.33 | 7.05 | 5.43 | 10.86 | 11.95 | |||||